Ft Riley, KS

8:16 AM CDT on October 20, 2017 (GMT -0500)
Marshall Army Air Field

Weather History for KFRI - April, 2013

Change the Weather History Date:

Wednesday, April 3, 2013

  Actual Average (KMHK) Record (KMHK)
Temperature  
Mean Temperature 38 °F -  
Max Temperature 48 °F 60 °F 91 °F (2011)
Min Temperature 30 °F 36 °F 23 °F (2002)
Degree Days  
Heating Degree Days 26    
Moisture  
Dew Point 25 °F    
Average Humidity 59    
Maximum Humidity 100    
Minimum Humidity 38    
Precipitation  
Precipitation 0.00 in - - ()
Sea Level Pressure  
Sea Level Pressure 30.31 in    
Wind  
Wind Speed 4 mph (East)    
Max Wind Speed 10 mph    
Max Gust Speed -    
Visibility 10 miles    
Events      
Averages and records for this station are not official NWS values.
T = Trace of Precipitation, MM = Missing Value Source: NWS Daily Summary

Daily Weather History Graph

Daily Weather History Graph

Search for Another Location

Airport or City:

Trip Planner

Search our weather history database for the weather conditions in past years. The results will help you decide how hot, cold, wet, or windy it might be!

Date:

Astronomy

Apr. 03, 2013 Rise Set
Actual Time 7:08 AM CDT 7:52 PM CDT
Civil Twilight 6:41 AM CDT 8:20 PM CDT
Nautical Twilight 6:09 AM CDT 8:52 PM CDT
Astronomical Twilight 5:36 AM CDT 9:25 PM CDT
Moon 2:46 AM CDT (4/3) 1:09 PM CDT (4/3)
Length of Visible Light 13h 38m
Length of Day
12h 44m
Last Quarter, 44% of the Moon is Illuminated
Apr 3
Last Quarter
Apr 10
New
Apr 18
First Quarter
Apr 25
Full
May 2
Last Quarter

Hourly Weather History & Observations

Time (CDT) Temp. Windchill Dew Point Humidity Pressure Visibility Wind Dir Wind Speed Gust Speed Precip Events Conditions
12:58 AM 39.6 °F 36.3 °F 22.6 °F 51% 30.30 in 10.0 mi SE 4.6 mph - N/A   Overcast
1:58 AM 33.4 °F 30.4 °F 24.4 °F 70% 30.30 in 10.0 mi ENE 3.5 mph - N/A   Overcast
2:58 AM 36.0 °F - 25.7 °F 66% 30.30 in 10.0 mi Calm Calm - N/A   Overcast
3:58 AM 32.7 °F - 26.4 °F 78% 30.30 in 10.0 mi NE 2.3 mph - N/A   Clear
4:58 AM 30.6 °F 27.1 °F 29.3 °F 95% 30.30 in 10.0 mi NNE 3.5 mph - N/A   Clear
5:58 AM 30.4 °F 26.9 °F 29.8 °F 98% 30.32 in 10.0 mi NE 3.5 mph - N/A   Overcast
6:58 AM 30.6 °F 27.1 °F 30.6 °F 100% 30.32 in 10.0 mi North 3.5 mph - N/A   Overcast
7:58 AM 31.3 °F - 30.9 °F 99% 30.35 in 10.0 mi North 2.3 mph - N/A   Scattered Clouds
8:58 AM 38.1 °F 31.2 °F 28.2 °F 68% 30.36 in 10.0 mi ENE 10.4 mph - N/A   Mostly Cloudy
9:58 AM 41.7 °F 36.7 °F 24.4 °F 50% 30.37 in 10.0 mi East 8.1 mph - N/A   Mostly Cloudy
10:58 AM 45.0 °F 40.6 °F 22.1 °F 40% 30.38 in 10.0 mi ESE 8.1 mph - N/A   Mostly Cloudy
11:58 AM 45.3 °F 42.3 °F 22.8 °F 41% 30.37 in 10.0 mi Variable 5.8 mph - N/A   Overcast
12:58 PM 45.9 °F 42.3 °F 21.7 °F 38% 30.35 in 10.0 mi ESE 6.9 mph - N/A   Mostly Cloudy
1:58 PM 46.0 °F 43.1 °F 21.9 °F 39% 30.34 in 10.0 mi SSE 5.8 mph - N/A   Scattered Clouds
2:58 PM 45.9 °F 41.7 °F 22.1 °F 39% 30.32 in 10.0 mi ESE 8.1 mph - N/A   Mostly Cloudy
3:58 PM 47.3 °F - 23.0 °F 38% 30.30 in 10.0 mi Variable 3.5 mph - N/A   Mostly Cloudy
4:58 PM 47.8 °F - 23.0 °F 38% 30.28 in 10.0 mi ESE 6.9 mph - N/A   Overcast
5:58 PM 47.1 °F - 23.2 °F 39% 30.27 in 10.0 mi Variable 3.5 mph - N/A   Overcast
6:58 PM 46.6 °F - 22.3 °F 38% 30.28 in 10.0 mi NE 1.2 mph - N/A   Overcast
7:58 PM 44.4 °F 41.2 °F 26.8 °F 50% 30.28 in 10.0 mi SW 5.8 mph - N/A   Overcast
8:58 PM 43.9 °F 42.3 °F 25.7 °F 49% 30.27 in 10.0 mi West 3.5 mph - N/A   Overcast
9:58 PM 42.3 °F - 26.4 °F 54% 30.27 in 10.0 mi West 2.3 mph - N/A   Scattered Clouds
10:55 PM 39.2 °F - 26.6 °F 61% 30.27 in 10.0 mi SW 2.3 mph - N/A   Partly Cloudy
11:58 PM 38.1 °F 35.7 °F 29.8 °F 72% 30.28 in 10.0 mi SSW 3.5 mph - N/A   Overcast